Los Angeles, CA (90001)

11:16 AM PDT on August 20, 2017 (GMT -0700)
Victoria Ave Elementary | | Change Station
Active Advisory: Beach Hazard Statement

Elev 125 ft 33.95 °N, 118.21 °W | Updated 9 minutes ago

Partly Cloudy
Partly Cloudy
75.9 °F
Feels Like 78 °F
N
5.0
Wind Variable Wind from SE
Gusts 8.0 mph

Today
High -- | Low -- °F
--% Chance of Precip.
Yesterday
High -- | Low -- °F
Precip. -- in
Pressure 29.94 in
Visibility 9.0 miles
Clouds Scattered Clouds 2600 ft
Heat Index 78 °F
Dew Point 62 °F
Humidity 62%
Rainfall 0.00 in
Snow Depth Not available.
6:18 AM 7:33 PM
Waning Crescent, 1% visible
SPECI KCQT 201810Z AUTO 00000KT 9SM SCT026 26/16 A2994 RMK AO2 T02560161
Pressure 29.94 in
Visibility 9.0 miles
Clouds Scattered Clouds 2600 ft
Heat Index 78 °F
Dew Point 62 °F
Humidity 62%
Rainfall 0.00 in
Snow Depth Not available.
6:18 AM 7:33 PM
Waning Crescent, 1% visible
SPECI KCQT 201810Z AUTO 00000KT 9SM SCT026 26/16 A2994 RMK AO2 T02560161

Get Your Daily Forecast Email!

Thanks for signing up!

Be on the lookout for a verification email in your inbox.

You'll start receiving severe weather alerts in your inbox..

×

10-Day Weather Forecast

Almanac

Astronomy

Aug. 20, 2017 Rise Set
Actual Time
Civil Twilight
Nautical Twilight
Astronomical Twilight
Moon
Length of Visible Light
Length of Day
Tomorrow will be .
, % of the Moon is Illuminated

Today's Extremes

State Highs State Lows

Community

WunderPhotos

Category 6

Welcome to Category 6. This is the collective home for Weather Underground's featured writeups by Dr. Jeff Masters (right), Bob Henson (left), Chris Burt, and other regular contributors.

Nearby

Air Quality

  Air Quality AQ Index Pollutant
Not available.

Snow Depth

Station Depth Elevation

Earthquake Activity

City Distance Mag. Time & Date
Minimum magnitude displayed is 2.5.

Coastal Water Temperatures

Place Temperature

Stations

Nearby Weather Stations

Station Location Temp. Windchill Dew Point Humidity Wind Precip. Elev Updated Type
                   

Watches & Warnings

Beach Hazard Statement
Issued: 7:19 AM PDT Aug. 20, 2017 – National Weather Service

... Beach hazards statement remains in effect through this
evening...

* hazards... minor tidal overflow and beach erosion are possible
due to a large high tide around 7 feet. High tides are
expected between 7 and 8 PM.

* Impacts... minor tidal overflow and beach erosion may bring
pooling of sea water to beach and Harbor areas that is
uncommon with normal tidal ranges.

Precautionary/preparedness actions...

A beach hazards statement is issued when threats to beach and
surf zone safety are expected or occurring. Caution should be
used when in or near the water.